Погода в Бреконе

Великобритания     51°56′52″N   3°23′20″W
темп.,
°C
ветер,
м/с
пор.,
м/с
влажн.,
%
обл.,
%
осадки,
мм/ч
давл.,
гПа
погр.,
м
22 июня, вт
вт2201:00+9св5109295 0.3 1020631
04:00+9ссв3894100 0.1 1021428
07:00+8ссв38880 0.1 1022377
10:00+12св58683 0.0 10231109
13:00+14ссв576398 0.1 10231676
16:00+14св356253 0.0 10231516
19:00+12зсз458318 0.1 1024352
22:00+8з11923 0.1 102510
23 июня, ср
ср2301:00+6зсз11910 0.1 102510
04:00+5сз11901 0.0 102510
07:00+8ссз01855 0.0 102556
10:00+13зсз11625 0.0 1025646
13:00+16зсз22565 0.0 10241147
16:00+17зсз326219 0.0 10241284
19:00+14зсз4479100 0.0 1024342
22:00+11сз1181100 0.0 102514
24 июня, чт
чт2401:00+11зсз1177100 0.0 102413
04:00+11зсз1176100 0.0 102417
07:00+10з1189100 0.4 102413
10:00+11з1194100 0.8 1024103
13:00+12з1196100 1.8 1024162
16:00+12зюз1197100 2.5 1023181
19:00+15з2491100 2.6 1022427
22:00+13юз239875 0.0 102294
25 июня, пт
пт2501:00+13юз259997 0.0 1022214
04:00+12юз2799100 0.5 1020327
07:00+12юз3596100 0.8 1020244
10:00+14юз4586100 0.1 1019463
13:00+16юз578990 0.9 1018835
16:00+14юз5996100 1.4 1017826
19:00+13з348670 2.0 1017588
22:00+11зюз239793 0.5 101881
26 июня, сб
сб2601:00+9з119511 0.7 101714
04:00+6юз119035 0.0 101710
07:00+9зюз0084100 0.0 101754
10:00+13с116899 0.0 1016957
13:00+15св2259100 0.1 10141504
16:00+15с1163100 0.3 10131220
19:00+12сз3488100 0.6 1013233
22:00+10сз3997100 4.4 1012535